Wetterdaten: Montag, 08.09.2014
Datum Zeit Temperatur Luftfeuchte Luftdruck Regen Wind Richtung Richtung Taupunkt Windchill Windben
08.09.2014 00:00 12,1 C 91 % 1018,6 hPa 0,0 l/m 0,0 km/h (0 Bft) SO 135 10,7 C 12,0 C 0,0 km/h (0 Bft)
08.09.2014 00:05 12,0 C 91 % 1018,6 hPa 0,0 l/m 0,0 km/h (0 Bft) NW 315 10,6 C 12,0 C 0,0 km/h (0 Bft)
08.09.2014 00:10 12,1 C 91 % 1018,6 hPa 0,0 l/m 0,0 km/h (0 Bft) S-SW 202 10,7 C 12,0 C 0,0 km/h (0 Bft)
08.09.2014 00:15 12,0 C 91 % 1018,6 hPa 0,0 l/m 0,2 km/h (0 Bft) W-NW 292 10,6 C 12,0 C 0,0 km/h (0 Bft)
08.09.2014 00:20 12,0 C 91 % 1018,6 hPa 0,0 l/m 0,2 km/h (0 Bft) W-SW 247 10,6 C 12,0 C 0,0 km/h (0 Bft)
08.09.2014 00:25 12,0 C 91 % 1018,6 hPa 0,0 l/m 0,0 km/h (0 Bft) W-SW 247 10,6 C 12,0 C 0,0 km/h (0 Bft)
08.09.2014 00:30 11,8 C 91 % 1018,6 hPa 0,0 l/m 0,0 km/h (0 Bft) NW 315 10,4 C 11,8 C 0,0 km/h (0 Bft)
08.09.2014 00:35 11,8 C 91 % 1018,5 hPa 0,0 l/m 0,0 km/h (0 Bft) N-NW 337 10,4 C 11,8 C 0,0 km/h (0 Bft)
08.09.2014 00:40 11,7 C 91 % 1018,5 hPa 0,0 l/m 0,0 km/h (0 Bft) N-NW 337 10,3 C 11,7 C 0,0 km/h (0 Bft)
08.09.2014 00:45 11,7 C 91 % 1018,5 hPa 0,0 l/m 0,0 km/h (0 Bft) NW 315 10,3 C 11,6 C 0,0 km/h (0 Bft)
08.09.2014 00:50 11,5 C 91 % 1018,5 hPa 0,0 l/m 0,0 km/h (0 Bft) W-NW 292 10,1 C 11,5 C 0,0 km/h (0 Bft)
08.09.2014 00:55 11,3 C 91 % 1018,7 hPa 0,0 l/m 0,0 km/h (0 Bft) S 180 9,9 C 11,3 C 0,0 km/h (0 Bft)
08.09.2014 01:00 11,3 C 91 % 1018,7 hPa 0,0 l/m 0,0 km/h (0 Bft) W 270 9,9 C 11,2 C 0,0 km/h (0 Bft)
08.09.2014 01:05 11,3 C 91 % 1018,7 hPa 0,0 l/m 0,2 km/h (0 Bft) W 270 9,9 C 11,1 C 2,9 km/h (1 Bft)
08.09.2014 01:10 11,6 C 92 % 1018,7 hPa 0,0 l/m 0,2 km/h (0 Bft) S 180 10,3 C 11,4 C 0,0 km/h (0 Bft)
08.09.2014 01:15 11,5 C 92 % 1018,6 hPa 0,0 l/m 0,3 km/h (0 Bft) S 180 10,2 C 11,5 C 0,0 km/h (0 Bft)
08.09.2014 01:20 11,5 C 92 % 1018,6 hPa 0,0 l/m 0,5 km/h (0 Bft) W-SW 247 10,2 C 11,5 C 1,8 km/h (1 Bft)
08.09.2014 01:25 11,6 C 92 % 1018,6 hPa 0,0 l/m 0,8 km/h (0 Bft) W-NW 292 10,3 C 11,6 C 3,4 km/h (1 Bft)
08.09.2014 01:30 11,4 C 92 % 1018,6 hPa 0,0 l/m 0,6 km/h (0 Bft) SO 135 10,1 C 11,6 C 0,0 km/h (0 Bft)
08.09.2014 01:35 11,4 C 92 % 1018,7 hPa 0,0 l/m 0,0 km/h (0 Bft) O-NO 67 10,1 C 11,4 C 0,0 km/h (0 Bft)
08.09.2014 01:40 11,3 C 92 % 1018,7 hPa 0,0 l/m 0,0 km/h (0 Bft) N-NO 22 10,0 C 11,3 C 0,0 km/h (0 Bft)
08.09.2014 01:45 11,3 C 92 % 1018,7 hPa 0,0 l/m 0,0 km/h (0 Bft) W 270 10,0 C 11,2 C 0,0 km/h (0 Bft)
08.09.2014 01:50 11,4 C 92 % 1018,7 hPa 0,0 l/m 0,0 km/h (0 Bft) W 270 10,1 C 11,3 C 0,0 km/h (0 Bft)
08.09.2014 01:55 11,5 C 92 % 1018,6 hPa 0,0 l/m 0,2 km/h (0 Bft) SO 135 10,2 C 11,4 C 0,0 km/h (0 Bft)
08.09.2014 02:00 11,5 C 92 % 1018,6 hPa 0,0 l/m 0,2 km/h (0 Bft) SW 225 10,2 C 11,4 C 0,0 km/h (0 Bft)
08.09.2014 02:05 11,5 C 92 % 1018,6 hPa 0,0 l/m 0,0 km/h (0 Bft) N-NW 337 10,2 C 11,4 C 0,0 km/h (0 Bft)
08.09.2014 02:10 11,5 C 92 % 1018,6 hPa 0,0 l/m 0,0 km/h (0 Bft) NW 315 10,2 C 11,5 C 0,0 km/h (0 Bft)
08.09.2014 02:15 11,7 C 92 % 1018,8 hPa 0,0 l/m 0,0 km/h (0 Bft) W 270 10,4 C 11,6 C 0,0 km/h (0 Bft)
08.09.2014 02:20 11,6 C 92 % 1018,8 hPa 0,0 l/m 0,2 km/h (0 Bft) W-NW 292 10,3 C 11,6 C 0,0 km/h (0 Bft)
08.09.2014 02:25 11,6 C 92 % 1018,8 hPa 0,0 l/m 0,2 km/h (0 Bft) N-NW 337 10,3 C 11,5 C 0,0 km/h (0 Bft)
08.09.2014 02:30 11,4 C 92 % 1018,8 hPa 0,0 l/m 0,0 km/h (0 Bft) N-NO 22 10,1 C 11,4 C 0,0 km/h (0 Bft)
08.09.2014 02:35 11,4 C 92 % 1018,6 hPa 0,0 l/m 0,0 km/h (0 Bft) N 360 10,1 C 11,4 C 0,0 km/h (0 Bft)
08.09.2014 02:40 11,3 C 92 % 1018,6 hPa 0,0 l/m 0,0 km/h (0 Bft) SO 135 10,0 C 11,3 C 0,0 km/h (0 Bft)
08.09.2014 02:45 11,3 C 92 % 1018,6 hPa 0,0 l/m 0,0 km/h (0 Bft) N-NW 337 10,0 C 11,2 C 2,1 km/h (1 Bft)
08.09.2014 02:50 11,3 C 92 % 1018,6 hPa 0,0 l/m 0,0 km/h (0 Bft) NW 315 10,0 C 11,2 C 0,0 km/h (0 Bft)
08.09.2014 02:55 11,3 C 92 % 1018,7 hPa 0,0 l/m 0,0 km/h (0 Bft) N-NW 337 10,0 C 11,3 C 0,0 km/h (0 Bft)
08.09.2014 03:00 11,3 C 93 % 1018,7 hPa 0,0 l/m 0,0 km/h (0 Bft) O-SO 112 10,2 C 11,4 C 0,0 km/h (0 Bft)
08.09.2014 03:05 11,4 C 93 % 1018,7 hPa 0,0 l/m 0,2 km/h (0 Bft) NW 315 10,3 C 11,5 C 0,0 km/h (0 Bft)
08.09.2014 03:10 11,4 C 93 % 1018,7 hPa 0,0 l/m 0,2 km/h (0 Bft) N-NW 337 10,3 C 11,4 C 0,0 km/h (0 Bft)
08.09.2014 03:15 11,5 C 93 % 1018,5 hPa 0,0 l/m 0,0 km/h (0 Bft) SO 135 10,4 C 11,4 C 0,0 km/h (0 Bft)
08.09.2014 03:20 11,3 C 93 % 1018,5 hPa 0,0 l/m 0,2 km/h (0 Bft) O-SO 112 10,2 C 11,3 C 0,0 km/h (0 Bft)
08.09.2014 03:25 11,2 C 93 % 1018,5 hPa 0,0 l/m 0,2 km/h (0 Bft) S-SO 157 10,1 C 11,1 C 0,0 km/h (0 Bft)
08.09.2014 03:30 11,2 C 93 % 1018,5 hPa 0,0 l/m 0,0 km/h (0 Bft) NW 315 10,1 C 11,1 C 0,0 km/h (0 Bft)
08.09.2014 03:35 11,3 C 93 % 1018,4 hPa 0,0 l/m 0,3 km/h (0 Bft) N-NO 22 10,2 C 11,2 C 0,0 km/h (0 Bft)
08.09.2014 03:40 11,1 C 93 % 1018,4 hPa 0,0 l/m 0,3 km/h (0 Bft) SO 135 10,0 C 11,1 C 0,0 km/h (0 Bft)
08.09.2014 03:45 11,2 C 93 % 1018,4 hPa 0,0 l/m 0,0 km/h (0 Bft) N-NW 337 10,1 C 11,1 C 0,0 km/h (0 Bft)
08.09.2014 03:50 11,0 C 93 % 1018,4 hPa 0,0 l/m 0,0 km/h (0 Bft) N-NO 22 9,9 C 10,9 C 0,0 km/h (0 Bft)
08.09.2014 03:55 10,9 C 93 % 1018,3 hPa 0,0 l/m 0,0 km/h (0 Bft) N-NO 22 9,8 C 10,7 C 0,0 km/h (0 Bft)
08.09.2014 04:00 10,7 C 93 % 1018,3 hPa 0,0 l/m 0,0 km/h (0 Bft) N-NW 337 9,6 C 10,7 C 2,1 km/h (1 Bft)
08.09.2014 04:05 10,9 C 93 % 1018,3 hPa 0,0 l/m 0,2 km/h (0 Bft) W-SW 247 9,8 C 10,7 C 0,0 km/h (0 Bft)
08.09.2014 04:10 10,9 C 94 % 1018,3 hPa 0,0 l/m 0,2 km/h (0 Bft) W-SW 247 10,0 C 10,7 C 0,0 km/h (0 Bft)
08.09.2014 04:15 11,0 C 93 % 1018,1 hPa 0,0 l/m 0,0 km/h (0 Bft) N-NW 337 9,9 C 10,8 C 0,0 km/h (0 Bft)
08.09.2014 04:20 10,9 C 94 % 1018,1 hPa 0,0 l/m 0,0 km/h (0 Bft) N-NO 22 10,0 C 10,7 C 0,0 km/h (0 Bft)
08.09.2014 04:25 10,9 C 94 % 1018,1 hPa 0,0 l/m 0,0 km/h (0 Bft) W-NW 292 10,0 C 10,7 C 0,0 km/h (0 Bft)
08.09.2014 04:30 10,9 C 94 % 1018,1 hPa 0,0 l/m 0,0 km/h (0 Bft) NW 315 10,0 C 10,7 C 0,0 km/h (0 Bft)
08.09.2014 04:35 10,9 C 94 % 1018,2 hPa 0,0 l/m 0,0 km/h (0 Bft) N-NW 337 10,0 C 10,7 C 0,0 km/h (0 Bft)
08.09.2014 04:40 10,8 C 94 % 1018,2 hPa 0,0 l/m 0,0 km/h (0 Bft) N-NO 22 9,9 C 10,7 C 0,0 km/h (0 Bft)
08.09.2014 04:45 11,0 C 94 % 1018,2 hPa 0,0 l/m 0,2 km/h (0 Bft) W 270 10,1 C 10,6 C 0,0 km/h (0 Bft)
08.09.2014 04:50 10,9 C 94 % 1018,2 hPa 0,0 l/m 0,2 km/h (0 Bft) SO 135 10,0 C 10,7 C 0,0 km/h (0 Bft)
08.09.2014 04:55 10,7 C 94 % 1018,2 hPa 0,0 l/m 0,2 km/h (0 Bft) NO 45 9,8 C 10,7 C 0,0 km/h (0 Bft)
08.09.2014 05:00 10,7 C 94 % 1018,2 hPa 0,0 l/m 0,0 km/h (0 Bft) O-SO 112 9,8 C 10,5 C 0,0 km/h (0 Bft)
08.09.2014 05:05 10,5 C 94 % 1018,2 hPa 0,0 l/m 0,0 km/h (0 Bft) SO 135 9,6 C 10,4 C 0,0 km/h (0 Bft)
08.09.2014 05:10 10,4 C 94 % 1018,2 hPa 0,0 l/m 0,0 km/h (0 Bft) S-SO 157 9,5 C 10,3 C 0,0 km/h (0 Bft)
08.09.2014 05:15 10,3 C 94 % 1018,0 hPa 0,0 l/m 0,2 km/h (0 Bft) NW 315 9,4 C 10,3 C 0,0 km/h (0 Bft)
08.09.2014 05:20 10,6 C 94 % 1018,0 hPa 0,0 l/m 0,2 km/h (0 Bft) O-SO 112 9,7 C 10,4 C 0,0 km/h (0 Bft)
08.09.2014 05:25 10,4 C 94 % 1018,0 hPa 0,0 l/m 0,2 km/h (0 Bft) O-SO 112 9,5 C 10,4 C 0,0 km/h (0 Bft)
08.09.2014 05:30 10,5 C 94 % 1018,0 hPa 0,0 l/m 0,0 km/h (0 Bft) O-SO 112 9,6 C 10,4 C 0,0 km/h (0 Bft)
08.09.2014 05:35 10,4 C 94 % 1018,1 hPa 0,0 l/m 0,0 km/h (0 Bft) NW 315 9,5 C 10,3 C 0,0 km/h (0 Bft)
08.09.2014 05:40 10,3 C 94 % 1018,1 hPa 0,0 l/m 0,0 km/h (0 Bft) S-SO 157 9,4 C 10,2 C 0,0 km/h (0 Bft)
08.09.2014 05:45 10,2 C 94 % 1018,1 hPa 0,0 l/m 0,0 km/h (0 Bft) S 180 9,3 C 10,2 C 0,0 km/h (0 Bft)
08.09.2014 05:50 10,2 C 94 % 1018,1 hPa 0,0 l/m 0,0 km/h (0 Bft) S-SO 157 9,3 C 10,2 C 0,0 km/h (0 Bft)
08.09.2014 05:55 10,5 C 94 % 1018,4 hPa 0,0 l/m 0,0 km/h (0 Bft) SO 135 9,6 C 10,3 C 0,0 km/h (0 Bft)
08.09.2014 06:00 10,6 C 94 % 1018,4 hPa 0,0 l/m 0,0 km/h (0 Bft) NW 315 9,7 C 10,5 C 0,0 km/h (0 Bft)
08.09.2014 06:05 10,6 C 94 % 1018,4 hPa 0,0 l/m 0,3 km/h (0 Bft) N-NO 22 9,7 C 10,7 C 2,3 km/h (1 Bft)
08.09.2014 06:10 10,8 C 94 % 1018,4 hPa 0,0 l/m 0,5 km/h (0 Bft) O-NO 67 9,9 C 10,7 C 0,0 km/h (0 Bft)
08.09.2014 06:15 10,6 C 94 % 1018,2 hPa 0,0 l/m 0,3 km/h (0 Bft) W-SW 247 9,7 C 10,7 C 0,0 km/h (0 Bft)
08.09.2014 06:20 10,6 C 94 % 1018,2 hPa 0,0 l/m 0,0 km/h (0 Bft) N-NW 337 9,7 C 10,7 C 0,0 km/h (0 Bft)
08.09.2014 06:25 10,4 C 94 % 1018,2 hPa 0,0 l/m 0,0 km/h (0 Bft) O-NO 67 9,5 C 10,5 C 0,0 km/h (0 Bft)
08.09.2014 06:30 10,2 C 94 % 1018,2 hPa 0,0 l/m 0,0 km/h (0 Bft) O-SO 112 9,3 C 10,4 C 0,0 km/h (0 Bft)
08.09.2014 06:35 10,1 C 94 % 1018,4 hPa 0,0 l/m 0,0 km/h (0 Bft) SW 225 9,2 C 10,2 C 0,0 km/h (0 Bft)
08.09.2014 06:40 10,1 C 94 % 1018,4 hPa 0,0 l/m 0,0 km/h (0 Bft) O-SO 112 9,2 C 10,1 C 0,0 km/h (0 Bft)
08.09.2014 06:45 10,2 C 94 % 1018,4 hPa 0,0 l/m 0,2 km/h (0 Bft) NW 315 9,3 C 10,1 C 2,7 km/h (1 Bft)
08.09.2014 06:50 10,4 C 94 % 1018,4 hPa 0,0 l/m 0,3 km/h (0 Bft) W-SW 247 9,5 C 10,4 C 1,8 km/h (1 Bft)
08.09.2014 06:55 10,6 C 94 % 1018,5 hPa 0,0 l/m 0,6 km/h (0 Bft) W-NW 292 9,7 C 10,7 C 3,1 km/h (1 Bft)
08.09.2014 07:00 10,8 C 94 % 1018,5 hPa 0,0 l/m 0,5 km/h (0 Bft) SO 135 9,9 C 10,9 C 0,0 km/h (0 Bft)
08.09.2014 07:05 11,1 C 94 % 1018,5 hPa 0,0 l/m 0,3 km/h (0 Bft) S 180 10,2 C 11,2 C 0,0 km/h (0 Bft)
08.09.2014 07:10 11,3 C 94 % 1018,5 hPa 0,0 l/m 0,2 km/h (0 Bft) N-NW 337 10,4 C 11,4 C 2,6 km/h (1 Bft)
08.09.2014 07:15 11,6 C 94 % 1018,6 hPa 0,0 l/m 0,3 km/h (0 Bft) N-NW 337 10,7 C 11,7 C 0,0 km/h (0 Bft)
08.09.2014 07:18 11,8 C 94 % 1018,6 hPa 0,0 l/m 0,3 km/h (0 Bft) NW 315 10,9 C 11,9 C 0,0 km/h (0 Bft)
08.09.2014 07:20 11,8 C 94 % 1018,6 hPa 0,0 l/m 0,3 km/h (0 Bft) NW 315 10,9 C 11,9 C 0,0 km/h (0 Bft)
08.09.2014 07:25 12,1 C 94 % 1018,6 hPa 0,0 l/m 0,0 km/h (0 Bft) W-NW 292 11,2 C 12,2 C 0,0 km/h (0 Bft)
08.09.2014 07:30 12,2 C 94 % 1018,6 hPa 0,0 l/m 0,2 km/h (0 Bft) NW 315 11,3 C 12,4 C 0,0 km/h (0 Bft)
08.09.2014 07:35 12,5 C 94 % 1018,6 hPa 0,0 l/m 0,2 km/h (0 Bft) SO 135 11,6 C 12,7 C 0,0 km/h (0 Bft)
08.09.2014 07:40 12,6 C 94 % 1018,6 hPa 0,0 l/m 0,0 km/h (0 Bft) SO 135 11,7 C 13,0 C 0,0 km/h (0 Bft)
08.09.2014 07:45 12,9 C 94 % 1018,6 hPa 0,0 l/m 0,0 km/h (0 Bft) NW 315 12,0 C 13,4 C 0,0 km/h (0 Bft)
08.09.2014 07:50 13,1 C 93 % 1018,6 hPa 0,0 l/m 0,0 km/h (0 Bft) SO 135 12,0 C 13,5 C 0,0 km/h (0 Bft)
08.09.2014 07:55 13,2 C 93 % 1018,8 hPa 0,0 l/m 0,0 km/h (0 Bft) O-SO 112 12,1 C 13,7 C 0,0 km/h (0 Bft)
08.09.2014 08:00 13,4 C 93 % 1018,8 hPa 0,0 l/m 0,0 km/h (0 Bft) S 180 12,3 C 13,9 C 0,0 km/h (0 Bft)
08.09.2014 08:05 13,6 C 93 % 1018,8 hPa 0,0 l/m 0,0 km/h (0 Bft) N-NO 22 12,5 C 14,3 C 0,0 km/h (0 Bft)
08.09.2014 08:10 13,8 C 93 % 1018,8 hPa 0,0 l/m 0,0 km/h (0 Bft) S-SO 157 12,7 C 14,7 C 0,0 km/h (0 Bft)
08.09.2014 08:15 14,0 C 93 % 1018,9 hPa 0,0 l/m 0,0 km/h (0 Bft) S 180 12,9 C 14,9 C 0,0 km/h (0 Bft)
08.09.2014 08:20 14,2 C 93 % 1018,9 hPa 0,0 l/m 0,0 km/h (0 Bft) W-NW 292 13,1 C 15,0 C 0,0 km/h (0 Bft)
08.09.2014 08:25 14,4 C 93 % 1018,9 hPa 0,0 l/m 0,0 km/h (0 Bft) SO 135 13,3 C 15,3 C 0,0 km/h (0 Bft)
08.09.2014 08:30 14,7 C 93 % 1018,9 hPa 0,0 l/m 0,0 km/h (0 Bft) S-SO 157 13,6 C 15,5 C 0,0 km/h (0 Bft)
08.09.2014 08:35 14,9 C 93 % 1019,1 hPa 0,0 l/m 0,0 km/h (0 Bft) S 180 13,8 C 15,8 C 0,0 km/h (0 Bft)
08.09.2014 08:40 15,1 C 93 % 1019,1 hPa 0,0 l/m 0,2 km/h (0 Bft) W 270 14,0 C 16,0 C 0,0 km/h (0 Bft)
08.09.2014 08:45 15,3 C 93 % 1019,1 hPa 0,0 l/m 0,2 km/h (0 Bft) SO 135 14,2 C 16,3 C 0,0 km/h (0 Bft)
08.09.2014 08:50 15,4 C 93 % 1019,1 hPa 0,0 l/m 0,0 km/h (0 Bft) SW 225 14,3 C 16,4 C 0,0 km/h (0 Bft)
08.09.2014 08:55 15,5 C 93 % 1019,3 hPa 0,0 l/m 0,0 km/h (0 Bft) W-NW 292 14,4 C 16,6 C 0,0 km/h (0 Bft)
08.09.2014 09:00 15,6 C 93 % 1019,3 hPa 0,0 l/m 0,0 km/h (0 Bft) NW 315 14,5 C 16,7 C 0,0 km/h (0 Bft)
08.09.2014 09:05 15,7 C 92 % 1019,3 hPa 0,0 l/m 0,0 km/h (0 Bft) NW 315 14,4 C 16,8 C 0,0 km/h (0 Bft)
08.09.2014 09:10 15,9 C 92 % 1019,3 hPa 0,0 l/m 0,0 km/h (0 Bft) W-SW 247 14,6 C 16,9 C 0,0 km/h (0 Bft)
08.09.2014 09:15 16,4 C 91 % 1019,4 hPa 0,0 l/m 0,0 km/h (0 Bft) NW 315 14,9 C 17,3 C 0,0 km/h (0 Bft)
08.09.2014 09:20 16,7 C 91 % 1019,4 hPa 0,0 l/m 0,0 km/h (0 Bft) W 270 15,2 C 17,7 C 0,0 km/h (0 Bft)
08.09.2014 09:25 17,5 C 90 % 1019,4 hPa 0,0 l/m 0,0 km/h (0 Bft) SO 135 15,8 C 18,8 C 0,0 km/h (0 Bft)
08.09.2014 09:30 18,2 C 89 % 1019,4 hPa 0,0 l/m 0,0 km/h (0 Bft) NW 315 16,4 C 20,0 C 0,0 km/h (0 Bft)
08.09.2014 09:35 18,7 C 87 % 1019,6 hPa 0,0 l/m 0,0 km/h (0 Bft) W-SW 247 16,5 C 21,7 C 0,0 km/h (0 Bft)
08.09.2014 09:40 19,1 C 87 % 1019,6 hPa 0,0 l/m 0,0 km/h (0 Bft) S-SW 202 16,9 C 22,4 C 0,0 km/h (0 Bft)
08.09.2014 09:45 19,3 C 84 % 1019,6 hPa 0,0 l/m 0,0 km/h (0 Bft) S-SW 202 16,5 C 23,0 C 0,0 km/h (0 Bft)
08.09.2014 09:50 20,0 C 81 % 1019,6 hPa 0,0 l/m 0,0 km/h (0 Bft) S 180 16,6 C 23,7 C 0,0 km/h (0 Bft)
08.09.2014 09:55 20,4 C 73 % 1019,8 hPa 0,0 l/m 0,0 km/h (0 Bft) NO 45 15,4 C 24,8 C 0,0 km/h (0 Bft)
08.09.2014 10:00 20,5 C 79 % 1019,8 hPa 0,0 l/m 0,0 km/h (0 Bft) NO 45 16,7 C 24,6 C 0,0 km/h (0 Bft)
08.09.2014 10:05 20,9 C 76 % 1019,8 hPa 0,0 l/m 0,0 km/h (0 Bft) N-NO 22 16,5 C 24,6 C 0,0 km/h (0 Bft)
08.09.2014 10:10 22,1 C 74 % 1019,8 hPa 0,0 l/m 0,0 km/h (0 Bft) N-NO 22 17,2 C 24,7 C 0,0 km/h (0 Bft)
08.09.2014 10:15 23,2 C 62 % 1019,9 hPa 0,0 l/m 0,0 km/h (0 Bft) N-NO 22 15,5 C 26,2 C 0,0 km/h (0 Bft)
08.09.2014 10:20 23,1 C 59 % 1019,9 hPa 0,0 l/m 0,0 km/h (0 Bft) N-NO 22 14,6 C 27,0 C 0,0 km/h (0 Bft)
08.09.2014 10:25 24,7 C 60 % 1019,9 hPa 0,0 l/m 0,0 km/h (0 Bft) O-NO 67 16,4 C 28,5 C 0,0 km/h (0 Bft)
08.09.2014 10:30 24,9 C 58 % 1019,9 hPa 0,0 l/m 0,0 km/h (0 Bft) N-NO 22 16,1 C 29,6 C 0,0 km/h (0 Bft)
08.09.2014 10:35 25,6 C 53 % 1019,9 hPa 0,0 l/m 0,0 km/h (0 Bft) S-SO 157 15,3 C 30,6 C 0,0 km/h (0 Bft)
08.09.2014 10:40 25,3 C 54 % 1019,9 hPa 0,0 l/m 0,2 km/h (0 Bft) W-SW 247 15,3 C 30,6 C 0,0 km/h (0 Bft)
08.09.2014 10:45 25,4 C 51 % 1019,9 hPa 0,0 l/m 0,3 km/h (0 Bft) N-NW 337 14,5 C 30,9 C 0,0 km/h (0 Bft)
08.09.2014 10:50 25,6 C 44 % 1019,9 hPa 0,0 l/m 0,3 km/h (0 Bft) SO 135 12,4 C 31,0 C 3,1 km/h (1 Bft)
08.09.2014 10:55 24,3 C 46 % 1020,0 hPa 0,0 l/m 1,4 km/h (1 Bft) N-NO 22 11,9 C 29,8 C 4,3 km/h (1 Bft)
08.09.2014 11:00 25,3 C 46 % 1020,0 hPa 0,0 l/m 1,4 km/h (1 Bft) N-NO 22 12,8 C 29,6 C 1,6 km/h (1 Bft)
08.09.2014 11:05 25,4 C 47 % 1020,0 hPa 0,0 l/m 1,0 km/h (0 Bft) N-NO 22 13,3 C 30,2 C 2,1 km/h (1 Bft)
08.09.2014 11:10 26,5 C 43 % 1020,0 hPa 0,0 l/m 1,4 km/h (1 Bft) N-NW 337 12,9 C 30,2 C 2,6 km/h (1 Bft)
08.09.2014 11:15 25,9 C 44 % 1020,2 hPa 0,0 l/m 1,3 km/h (1 Bft) N 360 12,7 C 30,0 C 1,9 km/h (1 Bft)
08.09.2014 11:20 25,9 C 42 % 1020,2 hPa 0,0 l/m 1,3 km/h (1 Bft) SO 135 12,0 C 30,1 C 2,1 km/h (1 Bft)
08.09.2014 11:25 26,6 C 44 % 1020,2 hPa 0,0 l/m 0,8 km/h (0 Bft) N-NO 22 13,3 C 30,1 C 0,0 km/h (0 Bft)
08.09.2014 11:30 26,3 C 40 % 1020,2 hPa 0,0 l/m 1,3 km/h (1 Bft) S-SO 157 11,6 C 29,9 C 4,5 km/h (1 Bft)
08.09.2014 11:35 26,4 C 40 % 1020,2 hPa 0,0 l/m 1,8 km/h (1 Bft) NW 315 11,7 C 29,7 C 2,6 km/h (1 Bft)
08.09.2014 11:40 27,7 C 40 % 1020,2 hPa 0,0 l/m 1,8 km/h (1 Bft) NW 315 12,9 C 29,8 C 1,9 km/h (1 Bft)
08.09.2014 11:45 27,2 C 40 % 1020,2 hPa 0,0 l/m 1,1 km/h (1 Bft) S 180 12,4 C 30,1 C 0,0 km/h (0 Bft)
08.09.2014 11:50 27,6 C 41 % 1020,2 hPa 0,0 l/m 0,6 km/h (0 Bft) S-SW 202 13,1 C 30,3 C 2,3 km/h (1 Bft)
08.09.2014 11:55 27,0 C 39 % 1020,6 hPa 0,0 l/m 1,3 km/h (1 Bft) N-NO 22 11,8 C 30,3 C 6,9 km/h (2 Bft)
08.09.2014 12:00 27,5 C 40 % 1020,6 hPa 0,0 l/m 1,3 km/h (1 Bft) S-SW 202 12,7 C 30,3 C 0,0 km/h (0 Bft)
08.09.2014 12:05 27,0 C 40 % 1020,6 hPa 0,0 l/m 1,1 km/h (1 Bft) O-SO 112 12,2 C 30,6 C 0,0 km/h (0 Bft)
08.09.2014 12:10 27,9 C 40 % 1020,6 hPa 0,0 l/m 1,0 km/h (0 Bft) SO 135 13,0 C 30,8 C 3,4 km/h (1 Bft)
08.09.2014 12:11 26,9 C 40 % 1020,8 hPa 0,0 l/m 1,6 km/h (1 Bft) O-SO 112 12,1 C 30,3 C 2,4 km/h (1 Bft)
08.09.2014 12:16 27,7 C 39 % 1020,8 hPa 0,0 l/m 2,3 km/h (1 Bft) N-NO 22 12,5 C 30,1 C 3,2 km/h (1 Bft)
08.09.2014 12:21 27,6 C 41 % 1020,8 hPa 0,0 l/m 2,3 km/h (1 Bft) N-NO 22 13,1 C 30,4 C 5,5 km/h (1 Bft)
08.09.2014 12:26 27,8 C 38 % 1020,8 hPa 0,0 l/m 2,3 km/h (1 Bft) NO 45 12,2 C 30,4 C 2,4 km/h (1 Bft)
08.09.2014 12:31 27,0 C 39 % 1020,9 hPa 0,0 l/m 2,6 km/h (1 Bft) SO 135 11,8 C 30,2 C 3,9 km/h (1 Bft)
08.09.2014 12:36 27,6 C 40 % 1020,9 hPa 0,0 l/m 3,1 km/h (1 Bft) N 360 12,8 C 30,2 C 4,8 km/h (1 Bft)
08.09.2014 12:41 27,1 C 40 % 1020,9 hPa 0,0 l/m 3,5 km/h (1 Bft) N-NO 22 12,3 C 30,0 C 2,7 km/h (1 Bft)
08.09.2014 12:46 28,0 C 40 % 1020,9 hPa 0,0 l/m 3,4 km/h (1 Bft) NW 315 13,1 C 30,3 C 0,0 km/h (0 Bft)
08.09.2014 12:51 25,6 C 41 % 1020,9 hPa 0,0 l/m 3,7 km/h (1 Bft) O-SO 112 11,4 C 29,4 C 2,7 km/h (1 Bft)
08.09.2014 12:56 25,6 C 46 % 1020,9 hPa 0,0 l/m 3,2 km/h (1 Bft) O-SO 112 13,1 C 28,6 C 1,9 km/h (1 Bft)
08.09.2014 13:01 25,6 C 45 % 1020,9 hPa 0,0 l/m 1,3 km/h (1 Bft) S-SO 157 12,8 C 28,1 C 0,0 km/h (0 Bft)
08.09.2014 13:06 25,6 C 43 % 1020,9 hPa 0,0 l/m 0,8 km/h (0 Bft) S 180 12,1 C 28,3 C 0,0 km/h (0 Bft)
08.09.2014 13:11 26,8 C 42 % 1020,8 hPa 0,0 l/m 0,6 km/h (0 Bft) N-NO 22 12,8 C 28,4 C 4,2 km/h (1 Bft)
08.09.2014 13:16 26,9 C 40 % 1020,8 hPa 0,0 l/m 1,9 km/h (1 Bft) O-SO 112 12,1 C 27,9 C 7,6 km/h (2 Bft)
08.09.2014 13:21 26,4 C 43 % 1020,8 hPa 0,0 l/m 2,9 km/h (1 Bft) W 270 12,8 C 27,9 C 1,8 km/h (1 Bft)
08.09.2014 13:26 26,9 C 40 % 1020,8 hPa 0,0 l/m 3,5 km/h (1 Bft) NW 315 12,1 C 28,6 C 6,8 km/h (2 Bft)
08.09.2014 13:31 27,2 C 40 % 1020,9 hPa 0,0 l/m 4,2 km/h (1 Bft) N-NW 337 12,4 C 28,4 C 4,3 km/h (1 Bft)
08.09.2014 13:36 28,1 C 40 % 1020,9 hPa 0,0 l/m 3,9 km/h (1 Bft) N-NW 337 13,2 C 29,4 C 3,5 km/h (1 Bft)
08.09.2014 13:41 27,1 C 38 % 1020,9 hPa 0,0 l/m 4,7 km/h (1 Bft) N-NW 337 11,5 C 30,3 C 7,7 km/h (2 Bft)
08.09.2014 13:46 26,0 C 40 % 1020,9 hPa 0,0 l/m 5,5 km/h (1 Bft) NW 315 11,3 C 29,5 C 6,3 km/h (2 Bft)
08.09.2014 13:51 25,6 C 45 % 1020,8 hPa 0,0 l/m 4,5 km/h (1 Bft) N-NW 337 12,8 C 27,7 C 3,9 km/h (1 Bft)
08.09.2014 13:56 25,8 C 43 % 1020,8 hPa 0,0 l/m 3,7 km/h (1 Bft) N-NW 337 12,3 C 27,8 C 5,1 km/h (1 Bft)
08.09.2014 14:01 26,3 C 45 % 1020,8 hPa 0,0 l/m 3,9 km/h (1 Bft) W-NW 292 13,4 C 28,3 C 6,1 km/h (2 Bft)
08.09.2014 14:06 25,7 C 44 % 1020,8 hPa 0,0 l/m 4,0 km/h (1 Bft) W-NW 292 12,5 C 27,8 C 3,2 km/h (1 Bft)
08.09.2014 14:11 25,5 C 46 % 1020,7 hPa 0,0 l/m 2,4 km/h (1 Bft) N-NO 22 13,0 C 27,9 C 2,4 km/h (1 Bft)
08.09.2014 14:16 25,6 C 44 % 1020,7 hPa 0,0 l/m 2,3 km/h (1 Bft) W 270 12,4 C 27,6 C 7,6 km/h (2 Bft)
08.09.2014 14:21 27,0 C 41 % 1020,7 hPa 0,0 l/m 2,4 km/h (1 Bft) W 270 12,6 C 29,7 C 3,1 km/h (1 Bft)
08.09.2014 14:31 27,8 C 40 % 1020,4 hPa 0,0 l/m 1,9 km/h (1 Bft) W-NW 292 12,9 C 31,0 C 0,0 km/h (0 Bft)
08.09.2014 14:35 28,2 C 40 % 1020,4 hPa 0,0 l/m 2,1 km/h (1 Bft) NW 315 13,3 C 31,4 C 4,7 km/h (1 Bft)
08.09.2014 14:40 27,1 C 38 % 1020,4 hPa 0,0 l/m 3,2 km/h (1 Bft) NW 315 11,5 C 31,6 C 9,5 km/h (2 Bft)
08.09.2014 14:45 26,3 C 41 % 1020,4 hPa 0,0 l/m 5,3 km/h (1 Bft) N-NO 22 12,0 C 30,0 C 3,9 km/h (1 Bft)
08.09.2014 14:50 26,3 C 42 % 1020,4 hPa 0,0 l/m 4,2 km/h (1 Bft) W-SW 247 12,3 C 29,6 C 2,1 km/h (1 Bft)
08.09.2014 14:55 26,1 C 42 % 1020,6 hPa 0,0 l/m 4,7 km/h (1 Bft) NW 315 12,2 C 28,6 C 7,2 km/h (2 Bft)
08.09.2014 15:00 27,1 C 39 % 1020,6 hPa 0,0 l/m 5,3 km/h (1 Bft) SW 225 11,9 C 28,8 C 6,3 km/h (2 Bft)
08.09.2014 15:05 27,7 C 39 % 1020,6 hPa 0,0 l/m 4,0 km/h (1 Bft) W-SW 247 12,5 C 30,0 C 6,8 km/h (2 Bft)
08.09.2014 15:10 27,2 C 38 % 1020,6 hPa 0,0 l/m 4,3 km/h (1 Bft) N 360 11,6 C 30,4 C 9,0 km/h (2 Bft)
08.09.2014 15:15 26,5 C 40 % 1020,5 hPa 0,0 l/m 4,3 km/h (1 Bft) NW 315 11,8 C 30,0 C 3,5 km/h (1 Bft)
08.09.2014 15:18 26,9 C 39 % 1020,5 hPa 0,0 l/m 4,0 km/h (1 Bft) W 270 11,8 C 30,0 C 8,0 km/h (2 Bft)
08.09.2014 15:20 26,9 C 39 % 1020,5 hPa 0,0 l/m 4,0 km/h (1 Bft) W 270 11,8 C 30,0 C 8,0 km/h (2 Bft)
08.09.2014 15:25 25,2 C 42 % 1020,5 hPa 0,0 l/m 4,5 km/h (1 Bft) W 270 11,4 C 29,3 C 4,8 km/h (1 Bft)
08.09.2014 15:30 24,7 C 44 % 1020,5 hPa 0,0 l/m 4,8 km/h (1 Bft) W-NW 292 11,6 C 27,8 C 2,9 km/h (1 Bft)
08.09.2014 15:35 25,8 C 43 % 1020,6 hPa 0,0 l/m 5,1 km/h (1 Bft) W 270 12,3 C 27,1 C 7,1 km/h (2 Bft)
08.09.2014 15:40 26,6 C 40 % 1020,6 hPa 0,0 l/m 4,2 km/h (1 Bft) W-SW 247 11,9 C 28,1 C 4,3 km/h (1 Bft)
08.09.2014 15:45 26,3 C 40 % 1020,6 hPa 0,0 l/m 4,5 km/h (1 Bft) W-SW 247 11,6 C 29,3 C 11,6 km/h (2 Bft)
08.09.2014 15:50 26,1 C 40 % 1020,6 hPa 0,0 l/m 4,5 km/h (1 Bft) W-SW 247 11,4 C 28,5 C 2,1 km/h (1 Bft)
08.09.2014 15:55 26,0 C 39 % 1020,1 hPa 0,0 l/m 4,3 km/h (1 Bft) NW 315 11,0 C 29,3 C 3,5 km/h (1 Bft)
08.09.2014 16:00 25,0 C 44 % 1020,1 hPa 0,0 l/m 3,9 km/h (1 Bft) NW 315 11,9 C 28,5 C 3,9 km/h (1 Bft)
08.09.2014 16:05 25,1 C 44 % 1020,1 hPa 0,0 l/m 3,2 km/h (1 Bft) NW 315 12,0 C 27,9 C 1,6 km/h (1 Bft)
08.09.2014 16:10 26,3 C 43 % 1020,1 hPa 0,0 l/m 2,9 km/h (1 Bft) W-SW 247 12,7 C 27,8 C 6,1 km/h (2 Bft)
08.09.2014 16:15 24,6 C 46 % 1020,1 hPa 0,0 l/m 2,6 km/h (1 Bft) N 360 12,2 C 27,6 C 3,5 km/h (1 Bft)
08.09.2014 16:20 23,9 C 48 % 1020,1 hPa 0,0 l/m 3,2 km/h (1 Bft) W-NW 292 12,2 C 26,6 C 6,8 km/h (2 Bft)
08.09.2014 16:25 23,3 C 49 % 1020,1 hPa 0,0 l/m 2,9 km/h (1 Bft) W-SW 247 12,0 C 25,0 C 2,9 km/h (1 Bft)
08.09.2014 16:30 23,4 C 51 % 1020,1 hPa 0,0 l/m 1,9 km/h (1 Bft) W-NW 292 12,7 C 24,8 C 0,0 km/h (0 Bft)
08.09.2014 16:35 23,9 C 52 % 1020,2 hPa 0,0 l/m 0,5 km/h (0 Bft) W-SW 247 13,4 C 24,9 C 0,0 km/h (0 Bft)
08.09.2014 16:40 23,5 C 52 % 1020,2 hPa 0,0 l/m 0,2 km/h (0 Bft) SW 225 13,1 C 25,1 C 0,0 km/h (0 Bft)
08.09.2014 16:45 22,8 C 56 % 1020,2 hPa 0,0 l/m 0,0 km/h (0 Bft) SW 225 13,6 C 25,2 C 0,0 km/h (0 Bft)
08.09.2014 16:50 23,2 C 54 % 1020,2 hPa 0,0 l/m 0,0 km/h (0 Bft) SW 225 13,4 C 25,4 C 0,0 km/h (0 Bft)
08.09.2014 16:55 23,6 C 55 % 1019,9 hPa 0,0 l/m 0,2 km/h (0 Bft) O-SO 112 14,0 C 28,5 C 1,8 km/h (1 Bft)
08.09.2014 17:00 23,4 C 52 % 1019,9 hPa 0,0 l/m 0,3 km/h (0 Bft) O 90 13,0 C 29,2 C 0,0 km/h (0 Bft)
08.09.2014 17:05 23,4 C 54 % 1019,9 hPa 0,0 l/m 0,3 km/h (0 Bft) SW 225 13,6 C 29,2 C 0,0 km/h (0 Bft)
08.09.2014 17:10 23,7 C 52 % 1019,9 hPa 0,0 l/m 0,2 km/h (0 Bft) S-SO 157 13,2 C 30,3 C 0,0 km/h (0 Bft)
08.09.2014 17:15 23,8 C 52 % 1019,9 hPa 0,0 l/m 0,5 km/h (0 Bft) W-SW 247 13,3 C 31,3 C 5,8 km/h (2 Bft)
08.09.2014 17:20 23,9 C 50 % 1019,9 hPa 0,0 l/m 2,1 km/h (1 Bft) W 270 12,8 C 31,3 C 5,8 km/h (2 Bft)
08.09.2014 17:25 23,6 C 48 % 1019,9 hPa 0,0 l/m 4,3 km/h (1 Bft) NW 315 11,9 C 29,8 C 6,4 km/h (2 Bft)
08.09.2014 17:30 23,3 C 49 % 1019,9 hPa 0,0 l/m 3,9 km/h (1 Bft) N-NO 22 12,0 C 29,0 C 3,5 km/h (1 Bft)
08.09.2014 17:35 22,7 C 53 % 1020,0 hPa 0,0 l/m 2,6 km/h (1 Bft) W 270 12,6 C 27,2 C 1,6 km/h (1 Bft)
08.09.2014 17:40 22,6 C 52 % 1020,0 hPa 0,0 l/m 2,9 km/h (1 Bft) W 270 12,2 C 26,9 C 5,3 km/h (1 Bft)
08.09.2014 17:45 22,4 C 53 % 1020,0 hPa 0,0 l/m 2,6 km/h (1 Bft) N-NW 337 12,3 C 27,3 C 4,3 km/h (1 Bft)
08.09.2014 17:50 22,4 C 53 % 1020,0 hPa 0,0 l/m 2,6 km/h (1 Bft) NW 315 12,3 C 28,0 C 8,0 km/h (2 Bft)
08.09.2014 17:55 22,6 C 49 % 1022,5 hPa 0,0 l/m 3,5 km/h (1 Bft) W-SW 247 11,3 C 28,3 C 4,3 km/h (1 Bft)
08.09.2014 18:00 22,5 C 52 % 1022,5 hPa 0,0 l/m 3,1 km/h (1 Bft) O-SO 112 12,1 C 28,5 C 2,1 km/h (1 Bft)
08.09.2014 18:05 22,5 C 54 % 1022,5 hPa 0,0 l/m 2,1 km/h (1 Bft) W-NW 292 12,7 C 28,7 C 2,4 km/h (1 Bft)
08.09.2014 18:10 22,4 C 55 % 1022,5 hPa 0,0 l/m 2,6 km/h (1 Bft) NW 315 12,9 C 28,6 C 5,5 km/h (1 Bft)
08.09.2014 18:15 22,3 C 55 % 1020,8 hPa 0,0 l/m 2,1 km/h (1 Bft) NW 315 12,8 C 28,5 C 2,7 km/h (1 Bft)
08.09.2014 18:18 22,0 C 56 % 1020,8 hPa 0,0 l/m 1,3 km/h (1 Bft) W-NW 292 12,8 C 28,6 C 0,0 km/h (0 Bft)
08.09.2014 18:20 22,0 C 56 % 1020,8 hPa 0,0 l/m 1,3 km/h (1 Bft) W-NW 292 12,8 C 28,6 C 0,0 km/h (0 Bft)
08.09.2014 18:25 21,5 C 58 % 1020,8 hPa 0,0 l/m 0,6 km/h (0 Bft) N-NO 22 12,9 C 29,1 C 2,1 km/h (1 Bft)
08.09.2014 18:30 21,4 C 59 % 1020,8 hPa 0,0 l/m 0,5 km/h (0 Bft) O-NO 67 13,0 C 28,7 C 0,0 km/h (0 Bft)
08.09.2014 18:35 21,1 C 59 % 1020,6 hPa 0,0 l/m 0,3 km/h (0 Bft) O-SO 112 12,8 C 28,7 C 0,0 km/h (0 Bft)
08.09.2014 18:40 20,9 C 62 % 1020,6 hPa 0,0 l/m 0,2 km/h (0 Bft) NW 315 13,3 C 28,1 C 2,6 km/h (1 Bft)
08.09.2014 18:45 20,9 C 63 % 1020,6 hPa 0,0 l/m 0,3 km/h (0 Bft) S 180 13,6 C 27,6 C 0,0 km/h (0 Bft)
08.09.2014 18:50 20,6 C 63 % 1020,6 hPa 0,0 l/m 0,3 km/h (0 Bft) S 180 13,3 C 27,6 C 0,0 km/h (0 Bft)
08.09.2014 18:55 20,6 C 64 % 1020,1 hPa 0,0 l/m 0,0 km/h (0 Bft) SO 135 13,5 C 27,6 C 0,0 km/h (0 Bft)
08.09.2014 19:00 20,6 C 64 % 1020,1 hPa 0,0 l/m 0,0 km/h (0 Bft) W-SW 247 13,5 C 27,0 C 0,0 km/h (0 Bft)
08.09.2014 19:05 20,4 C 65 % 1020,1 hPa 0,0 l/m 0,3 km/h (0 Bft) S-SO 157 13,6 C 26,1 C 0,0 km/h (0 Bft)
08.09.2014 19:10 20,1 C 68 % 1020,1 hPa 0,0 l/m 0,3 km/h (0 Bft) S-SO 157 14,0 C 25,5 C 0,0 km/h (0 Bft)
08.09.2014 19:15 19,7 C 70 % 1019,8 hPa 0,0 l/m 0,2 km/h (0 Bft) S-SO 157 14,1 C 24,4 C 0,0 km/h (0 Bft)
08.09.2014 19:20 19,4 C 71 % 1019,8 hPa 0,0 l/m 0,3 km/h (0 Bft) S-SO 157 14,0 C 23,6 C 1,8 km/h (1 Bft)
08.09.2014 19:25 19,1 C 70 % 1019,8 hPa 0,0 l/m 0,3 km/h (0 Bft) S-SO 157 13,5 C 21,8 C 0,0 km/h (0 Bft)
08.09.2014 19:30 19,1 C 70 % 1019,8 hPa 0,0 l/m 0,0 km/h (0 Bft) S 180 13,5 C 20,8 C 0,0 km/h (0 Bft)
08.09.2014 19:35 18,6 C 72 % 1019,8 hPa 0,0 l/m 0,3 km/h (0 Bft) S-SO 157 13,4 C 19,6 C 0,0 km/h (0 Bft)
08.09.2014 19:40 18,0 C 73 % 1019,8 hPa 0,0 l/m 0,3 km/h (0 Bft) S 180 13,1 C 18,9 C 0,0 km/h (0 Bft)
08.09.2014 19:45 17,4 C 73 % 1019,8 hPa 0,0 l/m 0,0 km/h (0 Bft) S-SO 157 12,5 C 18,2 C 0,0 km/h (0 Bft)
08.09.2014 19:50 17,3 C 75 % 1019,8 hPa 0,0 l/m 0,0 km/h (0 Bft) S-SO 157 12,8 C 17,7 C 0,0 km/h (0 Bft)
08.09.2014 19:55 17,1 C 75 % 1019,6 hPa 0,0 l/m 0,6 km/h (0 Bft) S 180 12,6 C 17,2 C 3,2 km/h (1 Bft)
08.09.2014 20:00 16,8 C 76 % 1019,6 hPa 0,0 l/m 0,8 km/h (0 Bft) SW 225 12,5 C 16,9 C 0,0 km/h (0 Bft)
08.09.2014 20:05 17,0 C 76 % 1019,6 hPa 0,0 l/m 0,3 km/h (0 Bft) S-SO 157 12,7 C 16,6 C 0,0 km/h (0 Bft)
08.09.2014 20:10 16,8 C 77 % 1019,6 hPa 0,0 l/m 0,0 km/h (0 Bft) SW 225 12,7 C 16,5 C 0,0 km/h (0 Bft)
08.09.2014 20:15 16,6 C 77 % 1019,8 hPa 0,0 l/m 0,3 km/h (0 Bft) S 180 12,5 C 16,4 C 0,0 km/h (0 Bft)
08.09.2014 20:20 16,6 C 77 % 1019,8 hPa 0,0 l/m 1,3 km/h (1 Bft) S 180 12,5 C 16,4 C 5,3 km/h (1 Bft)
08.09.2014 20:25 16,8 C 76 % 1019,8 hPa 0,0 l/m 2,6 km/h (1 Bft) S 180 12,5 C 16,6 C 3,1 km/h (1 Bft)
08.09.2014 20:30 16,7 C 76 % 1019,8 hPa 0,0 l/m 2,1 km/h (1 Bft) SO 135 12,4 C 16,6 C 0,0 km/h (0 Bft)
08.09.2014 20:35 16,7 C 76 % 1020,1 hPa 0,0 l/m 1,1 km/h (1 Bft) S 180 12,4 C 16,7 C 7,7 km/h (2 Bft)
08.09.2014 20:40 16,5 C 77 % 1020,1 hPa 0,0 l/m 2,4 km/h (1 Bft) SO 135 12,5 C 16,8 C 0,0 km/h (0 Bft)
08.09.2014 20:45 16,5 C 76 % 1020,1 hPa 0,0 l/m 2,3 km/h (1 Bft) S-SO 157 12,3 C 16,7 C 0,0 km/h (0 Bft)
08.09.2014 20:50 16,4 C 76 % 1020,1 hPa 0,0 l/m 0,3 km/h (0 Bft) S 180 12,2 C 16,4 C 2,3 km/h (1 Bft)
08.09.2014 20:55 16,3 C 77 % 1020,1 hPa 0,0 l/m 1,3 km/h (1 Bft) S 180 12,3 C 16,2 C 0,0 km/h (0 Bft)
08.09.2014 21:00 16,3 C 77 % 1020,1 hPa 0,0 l/m 1,4 km/h (1 Bft) S-SO 157 12,3 C 16,0 C 2,3 km/h (1 Bft)
08.09.2014 21:05 16,0 C 77 % 1020,1 hPa 0,0 l/m 0,5 km/h (0 Bft) S 180 12,0 C 15,8 C 2,6 km/h (1 Bft)
08.09.2014 21:10 15,8 C 78 % 1020,1 hPa 0,0 l/m 1,1 km/h (1 Bft) S 180 12,0 C 15,7 C 3,7 km/h (1 Bft)
08.09.2014 21:13 15,9 C 80 % 1020,2 hPa 0,0 l/m 2,1 km/h (1 Bft) S 180 12,5 C 15,6 C 6,1 km/h (2 Bft)
08.09.2014 21:15 15,9 C 80 % 1020,2 hPa 0,0 l/m 2,1 km/h (1 Bft) S 180 12,5 C 15,6 C 6,1 km/h (2 Bft)
08.09.2014 21:20 16,0 C 80 % 1020,2 hPa 0,0 l/m 2,6 km/h (1 Bft) S 180 12,5 C 15,7 C 4,2 km/h (1 Bft)
08.09.2014 21:25 16,2 C 80 % 1020,2 hPa 0,0 l/m 2,3 km/h (1 Bft) SW 225 12,7 C 15,7 C 3,4 km/h (1 Bft)
08.09.2014 21:30 16,2 C 80 % 1020,2 hPa 0,0 l/m 2,1 km/h (1 Bft) S-SO 157 12,7 C 15,8 C 2,7 km/h (1 Bft)
08.09.2014 21:35 16,2 C 80 % 1020,4 hPa 0,0 l/m 2,6 km/h (1 Bft) SW 225 12,7 C 15,9 C 4,2 km/h (1 Bft)
08.09.2014 21:40 16,1 C 80 % 1020,4 hPa 0,0 l/m 2,7 km/h (1 Bft) W-SW 247 12,6 C 16,0 C 4,3 km/h (1 Bft)
08.09.2014 21:45 15,5 C 80 % 1020,4 hPa 0,0 l/m 1,4 km/h (1 Bft) S-SO 157 12,1 C 15,7 C 0,0 km/h (0 Bft)
08.09.2014 21:50 15,2 C 80 % 1020,4 hPa 0,0 l/m 0,5 km/h (0 Bft) S-SO 157 11,8 C 15,4 C 2,1 km/h (1 Bft)
08.09.2014 21:55 15,1 C 81 % 1020,6 hPa 0,0 l/m 0,3 km/h (0 Bft) W 270 11,9 C 15,2 C 1,8 km/h (1 Bft)
08.09.2014 22:00 15,0 C 82 % 1020,6 hPa 0,0 l/m 0,3 km/h (0 Bft) S-SO 157 12,0 C 15,0 C 0,0 km/h (0 Bft)
08.09.2014 22:05 14,8 C 82 % 1020,6 hPa 0,0 l/m 0,2 km/h (0 Bft) S-SO 157 11,8 C 14,8 C 0,0 km/h (0 Bft)
08.09.2014 22:10 14,8 C 82 % 1020,6 hPa 0,0 l/m 0,2 km/h (0 Bft) W-SW 247 11,8 C 14,7 C 0,0 km/h (0 Bft)
08.09.2014 22:15 14,8 C 83 % 1020,8 hPa 0,0 l/m 0,0 km/h (0 Bft) SW 225 11,9 C 14,6 C 0,0 km/h (0 Bft)
08.09.2014 22:20 14,7 C 83 % 1020,8 hPa 0,0 l/m 0,0 km/h (0 Bft) W-NW 292 11,8 C 14,5 C 0,0 km/h (0 Bft)
08.09.2014 22:25 14,6 C 83 % 1020,8 hPa 0,0 l/m 0,0 km/h (0 Bft) S-SW 202 11,7 C 14,4 C 0,0 km/h (0 Bft)
08.09.2014 22:30 14,5 C 83 % 1020,8 hPa 0,0 l/m 0,0 km/h (0 Bft) SO 135 11,6 C 14,4 C 0,0 km/h (0 Bft)
08.09.2014 22:35 14,4 C 83 % 1020,8 hPa 0,0 l/m 0,0 km/h (0 Bft) SW 225 11,5 C 14,4 C 0,0 km/h (0 Bft)
08.09.2014 22:40 14,5 C 83 % 1020,8 hPa 0,0 l/m 0,0 km/h (0 Bft) SO 135 11,6 C 14,3 C 0,0 km/h (0 Bft)
08.09.2014 22:45 14,4 C 83 % 1020,8 hPa 0,0 l/m 0,0 km/h (0 Bft) S-SW 202 11,5 C 14,3 C 0,0 km/h (0 Bft)
08.09.2014 22:50 14,4 C 83 % 1020,8 hPa 0,0 l/m 0,0 km/h (0 Bft) S 180 11,5 C 14,2 C 0,0 km/h (0 Bft)
08.09.2014 22:55 14,1 C 83 % 1020,8 hPa 0,0 l/m 0,0 km/h (0 Bft) O-SO 112 11,3 C 14,0 C 0,0 km/h (0 Bft)
08.09.2014 23:00 13,9 C 84 % 1020,8 hPa 0,0 l/m 0,0 km/h (0 Bft) O-SO 112 11,2 C 13,9 C 0,0 km/h (0 Bft)
08.09.2014 23:05 13,6 C 83 % 1020,8 hPa 0,0 l/m 0,0 km/h (0 Bft) S 180 10,8 C 13,7 C 0,0 km/h (0 Bft)
08.09.2014 23:10 13,6 C 84 % 1020,8 hPa 0,0 l/m 0,0 km/h (0 Bft) N-NW 337 10,9 C 13,6 C 0,0 km/h (0 Bft)
08.09.2014 23:15 13,4 C 84 % 1020,8 hPa 0,0 l/m 0,2 km/h (0 Bft) NW 315 10,8 C 13,6 C 0,0 km/h (0 Bft)
08.09.2014 23:20 13,4 C 84 % 1020,8 hPa 0,0 l/m 0,0 km/h (0 Bft) SW 225 10,8 C 13,5 C 0,0 km/h (0 Bft)
08.09.2014 23:25 13,4 C 85 % 1020,8 hPa 0,0 l/m 0,0 km/h (0 Bft) W-NW 292 10,9 C 13,5 C 0,0 km/h (0 Bft)
08.09.2014 23:30 13,4 C 85 % 1020,8 hPa 0,0 l/m 0,0 km/h (0 Bft) W-NW 292 10,9 C 13,5 C 0,0 km/h (0 Bft)
08.09.2014 23:35 13,5 C 85 % 1020,9 hPa 0,0 l/m 0,3 km/h (0 Bft) NW 315 11,0 C 13,4 C 2,7 km/h (1 Bft)
08.09.2014 23:40 13,7 C 86 % 1020,9 hPa 0,0 l/m 0,3 km/h (0 Bft) N 360 11,4 C 13,4 C 2,1 km/h (1 Bft)
08.09.2014 23:45 13,4 C 86 % 1020,9 hPa 0,0 l/m 0,3 km/h (0 Bft) W 270 11,1 C 13,5 C 0,0 km/h (0 Bft)
08.09.2014 23:50 13,4 C 86 % 1020,9 hPa 0,0 l/m 0,2 km/h (0 Bft) N-NW 337 11,1 C 13,4 C 0,0 km/h (0 Bft)
08.09.2014 23:55 13,1 C 86 % 1020,8 hPa 0,0 l/m 0,0 km/h (0 Bft) NW 315 10,8 C 13,2 C 0,0 km/h (0 Bft)
_ Min-Zeit 06:40 15:10 05:30 - 23:55 - - 06:40 06:45 23:55
Minimum _ 10,1 C 38 % 1018,0 hPa - 0,0 km/h (0 Bft) - - 9,2 C 10,1 C 0,0 km/h (0 Bft)
_ Max-Zeit 14:35 07:45 18:10 23:55 13:46 - - 10:10 14:40 15:45
Maximum _ 28,2 C 94 % 1022,5 hPa 0,0 l/m 5,5 km/h
NW (1 Bft)
- - 17,2 C 31,6 C 11,6 km/h
W-SW (2 Bft)
Durchschnitt _ 17,8 C 73 % 1019,7 hPa #0,0 l/m 1,0 km/h (0 Bft) NW - 11,9 C 19,4 C 1,4 km/h (1 Bft)